Zurück zum Katalog

STARLINK-5516

AktivKommunikationVLEO
NORAD 57253·PAYLOAD·🇺🇸 United States

Gestartet Jul 7, 2023 von Vandenberg Space Force Base

Loading…

Nächste Überflüge (nächste 24 Stunden)

TLE

AktuellSource: CelesTrak SupGP

Epoche: Sep 14, 2026, 21:45 UTC

1 57253C 23094AM  26257.90673611  .00027744  00000+0  10048-2 0  2570
2 57253  43.0022  31.1764 0001458 276.1696 299.7620 15.27568279    10

Verfolge STARLINK-5516 in Echtzeit mit AllMySat

Download on the App Store